1500782400.36,62321,21.25,74346.5,8.75,2.47,2.55,0,*70
1500782401.61,62322,21.31,74350.0,8.77,2.55,2.59,0,*7E
1500782402.85,62323,21.31,74350.8,8.77,2.59,2.65,0,*7C
1500782404.08,62324,21.31,74350.5,8.79,2.69,2.73,0,*71
1500782405.3,62325,21.31,74352.3,8.79,2.73,2.73,0,*7B
1500782406.54,62326,21.31,74350.5,8.77,2.55,2.65,0,*75
1500782407.79,62327,21.31,74350.0,8.77,2.55,2.59,0,*7B
1500782409.02,62328,21.31,74350.8,8.79,2.73,2.69,0,*7D
1500782410.24,62329,21.31,74348.8,8.79,2.69,2.73,0,*7C
1500782411.46,62330,21.31,74348.5,8.79,2.73,2.69,0,*74
1500782412.69,62331,21.31,74354.8,8.79,2.73,2.73,0,*7E
1500782413.92,62332,21.31,74352.3,8.79,2.85,2.81,0,*79
1500782415.15,62333,21.31,74350.5,8.79,2.81,2.69,0,*7A
1500782416.4,62334,21.31,74350.0,8.81,2.81,2.73,0,*71
1500782417.63,62335,21.31,74348.5,8.79,2.85,2.73,0,*73
1500782418.86,62336,21.31,74354.0,8.79,2.81,2.69,0,*7F
1500782420.09,62337,21.31,74350.8,8.79,2.81,2.69,0,*7E
1500782421.32,62338,21.25,74350.5,8.79,2.85,2.73,0,*7E
1500782422.55,62339,21.31,74354.0,8.79,2.85,2.81,0,*72
1500782423.76,62340,21.31,74352.5,8.79,2.91,2.81,0,*79
1500782424.96,62341,21.31,74350.5,8.79,2.95,2.85,0,*78
1500782426.18,62342,21.25,74348.3,8.79,2.85,2.69,0,*78
1500782427.41,62343,21.31,74350.8,8.79,2.85,2.73,0,*72
1500782428.61,62344,21.31,74346.8,8.79,2.99,2.85,0,*71
1500782429.82,62345,21.31,74350.0,8.79,2.99,2.81,0,*74
1500782431.02,62346,21.31,74350.8,8.79,2.99,2.85,0,*73
1500782432.23,62347,21.31,74350.3,8.79,3.07,2.91,0,*71
1500782433.43,62348,21.31,74350.8,8.79,3.19,2.91,0,*71
1500782434.64,62349,21.25,74350.0,8.79,3.11,2.91,0,*78
1500782435.87,62350,21.31,74352.3,8.79,3.11,2.85,0,*75
1500782437.07,62351,21.31,74352.8,8.79,3.19,2.99,0,*71
1500782438.3,62352,21.31,74354.3,8.77,3.25,3.03,0,*71
1500782439.5,62353,21.31,74354.8,8.79,3.19,2.91,0,*7B
1500782440.7,62354,21.31,74352.5,8.79,3.19,2.91,0,*7C
1500782441.92,62355,21.31,74354.8,8.79,3.19,2.85,0,*78
1500782443.15,62356,21.31,74350.0,8.79,3.11,2.85,0,*73
1500782444.38,62357,21.31,74354.8,8.79,3.19,2.81,0,*7E
1500782445.64,62358,21.31,74352.0,8.81,3.07,2.73,0,*74
1500782446.88,62359,21.31,74350.8,8.79,3.07,2.69,0,*79
1500782448.11,62360,21.31,74352.5,8.79,3.23,2.85,0,*77
1500782449.33,62361,21.31,74348.8,8.79,3.19,2.85,0,*7F
1500782450.53,62362,21.31,74350.8,8.79,3.29,2.85,0,*7F
1500782451.74,62363,21.31,74348.3,8.79,3.29,2.81,0,*7A
1500782452.95,62364,21.31,74348.3,8.79,3.29,2.85,0,*79
1500782454.15,62365,21.31,74350.8,8.79,3.29,2.85,0,*78
1500782455.36,62366,21.31,74348.8,8.79,3.41,2.91,0,*70
1500782456.54,62367,21.31,74350.0,8.79,3.29,2.91,0,*7F
1500782457.76,62368,21.31,74348.5,8.79,3.19,2.73,0,*7F
1500782458.97,62369,21.25,74350.0,8.79,3.29,2.81,0,*70
1500782460.2,62370,21.31,74348.0,8.79,3.33,2.85,0,*77
1500782461.42,62371,21.31,74352.3,8.79,3.33,2.85,0,*76
1500782462.65,62372,21.31,74352.3,8.79,3.23,2.73,0,*7D
1500782463.86,62373,21.31,74354.0,8.79,3.29,2.81,0,*7B
1500782465.12,62374,21.31,74350.8,8.77,3.19,2.77,0,*78
1500782466.35,62375,21.31,74350.0,8.79,3.23,2.73,0,*7A
1500782467.58,62376,21.31,74350.8,8.79,3.23,2.69,0,*72
1500782468.81,62377,21.31,74350.8,8.75,3.29,2.77,0,*7A
1500782470.04,62378,21.31,74350.5,8.77,3.25,2.77,0,*7B
1500782471.28,62379,21.31,74350.5,8.79,3.41,2.81,0,*7F
1500782472.5,62380,21.31,74348.8,8.79,3.33,2.85,0,*78
1500782473.74,62381,21.31,74350.3,8.77,3.29,2.81,0,*78
1500782474.97,62382,21.31,74348.3,8.79,3.33,2.81,0,*7E
1500782476.2,62383,21.31,74350.5,8.79,3.41,2.85,0,*7E
1500782477.46,62384,21.31,74350.0,8.75,3.41,2.89,0,*79
1500782478.71,62385,21.31,74350.8,8.77,3.37,2.77,0,*7A
1500782479.92,62386,21.31,74346.5,8.79,3.29,2.69,0,*77
1500782481.17,62387,21.25,74344.8,8.75,3.37,2.81,0,*73
1500782482.38,62388,21.31,74348.0,8.77,3.25,2.65,0,*77
1500782483.64,62389,21.31,74346.3,8.75,3.37,2.81,0,*7D
1500782484.86,62390,21.31,74350.8,8.75,3.53,2.95,0,*72
1500782486.06,62391,21.31,74350.5,8.79,3.53,2.99,0,*73
1500782487.26,62392,21.31,74350.5,8.79,3.45,2.91,0,*7F
1500782488.49,62393,21.31,74350.5,8.79,3.41,2.85,0,*7F
1500782489.72,62394,21.31,74348.3,8.77,3.41,2.91,0,*73
1500782490.98,62395,21.31,74350.0,8.77,3.53,3.03,0,*7B
1500782492.21,62396,21.31,74354.8,8.77,3.41,2.95,0,*75
1500782493.41,62397,21.31,74352.8,8.79,3.45,2.91,0,*7A
1500782494.62,62398,21.31,74350.5,8.79,3.45,2.91,0,*75
1500782495.84,62399,21.31,74348.3,8.77,3.49,2.95,0,*72
1500782497.1,62400,21.31,74346.8,8.75,3.41,2.89,0,*72
1500782498.36,62401,21.31,74346.5,8.77,3.49,2.81,0,*71
1500782499.56,62402,21.31,74346.5,8.79,3.45,2.91,0,*71
1500782500.81,62403,21.31,74350.5,8.77,3.49,3.03,0,*78
1500782502.04,62404,21.31,74346.8,8.77,3.59,3.07,0,*7A
1500782503.3,62405,21.31,74346.5,8.77,3.53,3.03,0,*75
1500782504.55,62406,21.31,74348.8,8.77,3.49,3.03,0,*7D
1500782505.78,62407,21.31,74352.3,8.77,3.41,2.95,0,*7A
1500782507.01,62408,21.31,74354.5,8.77,3.59,3.07,0,*76
1500782508.24,62409,21.31,74350.8,8.77,3.59,3.07,0,*77
1500782509.49,62410,21.31,74354.5,8.75,3.53,3.15,0,*74
1500782510.7,62411,21.31,74352.8,8.77,3.63,3.25,0,*77
1500782511.92,62412,21.31,74352.5,8.77,3.63,3.19,0,*7B
1500782513.13,62413,21.31,74352.3,8.77,3.63,3.25,0,*75
1500782514.36,62414,21.31,74352.3,8.77,3.67,3.25,0,*76
1500782515.56,62415,21.31,74352.5,8.75,3.63,3.29,0,*7D
1500782516.8,62416,21.31,74350.5,8.77,3.67,3.29,0,*78
1500782518.01,62417,21.31,74350.3,8.77,3.63,3.29,0,*7D
1500782519.24,62418,21.31,74354.8,8.77,3.67,3.25,0,*7A
1500782520.48,62419,21.31,74352.5,8.77,3.67,3.29,0,*77
1500782521.74,62420,21.31,74352.5,8.77,3.53,3.15,0,*75
1500782522.94,62421,21.31,74348.8,8.75,3.59,3.29,0,*73
1500782524.18,62422,21.31,74352.5,8.77,3.53,3.19,0,*7B
1500782525.39,62423,21.31,74352.3,8.77,3.59,3.29,0,*73
1500782526.59,62424,21.31,74350.0,8.77,3.63,3.25,0,*71
1500782527.82,62425,21.31,74348.8,8.75,3.53,3.29,0,*7D
1500782529.04,62426,21.31,74354.3,8.77,3.49,3.25,0,*7B
1500782530.25,62427,21.31,74348.0,8.77,3.59,3.25,0,*7B
1500782531.47,62428,21.31,74350.8,8.75,3.53,3.25,0,*7C
1500782532.68,62429,21.31,74348.8,8.77,3.59,3.29,0,*79
1500782533.91,62430,21.31,74350.0,8.77,3.53,3.29,0,*7B
1500782535.11,62431,21.31,74348.5,8.77,3.59,3.29,0,*70
1500782536.34,62432,21.31,74348.0,8.75,3.41,3.25,0,*74
1500782537.56,62433,21.31,74350.5,8.75,3.53,3.29,0,*7A
1500782538.79,62434,21.31,74348.0,8.77,3.59,3.37,0,*7A
1500782540.05,62435,21.31,74348.3,8.77,3.53,3.41,0,*70
1500782541.31,62436,21.31,74354.8,8.75,3.67,3.41,0,*76
1500782542.57,62437,21.31,74354.0,8.77,3.67,3.53,0,*76
1500782543.8,62438,21.31,74354.0,8.75,3.63,3.41,0,*7C
1500782545.04,62439,21.31,74352.3,8.79,3.67,3.41,0,*75
1500782546.28,62440,21.31,74352.3,8.77,3.63,3.41,0,*71
1500782547.53,62441,21.31,74348.8,8.77,3.67,3.53,0,*77
1500782548.79,62442,21.31,74354.0,8.75,3.75,3.53,0,*75
1500782550.02,62443,21.31,74354.0,8.77,3.67,3.59,0,*7F
1500782551.28,62444,21.31,74350.8,8.77,3.75,3.67,0,*76
1500782552.52,62445,21.31,74354.8,8.77,3.75,3.59,0,*7A
1500782553.75,62446,21.31,74348.5,8.77,3.75,3.63,0,*70
1500782554.99,62447,21.31,74352.5,8.77,3.67,3.59,0,*7B
1500782556.22,62448,21.31,74348.3,8.77,3.67,3.63,0,*7D
1500782557.45,62449,21.31,74348.3,8.79,3.79,3.71,0,*7E
1500782558.71,62450,21.31,74354.0,8.77,3.79,3.67,0,*7F
1500782559.97,62451,21.31,74350.3,8.77,3.75,3.67,0,*72
1500782561.23,62452,21.31,74352.0,8.77,3.79,3.75,0,*7E
1500782562.49,62453,21.31,74354.0,8.77,3.79,3.79,0,*73
1500782563.67,62454,21.31,74352.5,8.79,3.81,3.81,0,*7A
1500782564.9,62455,21.31,74354.0,8.79,3.67,3.67,0,*7B
1500782566.13,62456,21.31,74352.5,8.77,3.63,3.53,0,*75
1500782567.33,62457,21.31,74350.5,8.79,3.67,3.63,0,*7D
1500782568.51,62458,21.31,74350.8,8.79,3.63,3.55,0,*73
1500782569.76,62459,21.31,74352.8,8.77,3.53,3.53,0,*79
1500782570.96,62460,21.31,74350.5,8.77,3.59,3.63,0,*7A
1500782572.18,62461,21.31,74354.8,8.77,3.53,3.63,0,*71
1500782573.41,62462,21.31,74348.5,8.77,3.53,3.59,0,*7B
1500782574.66,62463,21.31,74348.8,8.77,3.49,3.53,0,*7B
1500782575.85,62464,21.31,74350.5,8.79,3.53,3.55,0,*7F
1500782577.11,62465,21.31,74352.3,8.77,3.41,3.53,0,*75
1500782578.33,62466,21.31,74350.8,8.77,3.53,3.59,0,*7F
1500782579.55,62467,21.31,74352.0,8.75,3.53,3.63,0,*75
1500782580.78,62468,21.31,74350.8,8.77,3.59,3.67,0,*76
1500782582.01,62469,21.31,74350.8,8.77,3.63,3.75,0,*7D
1500782583.28,62470,21.31,74352.5,8.77,3.67,3.75,0,*71
1500782584.48,62471,21.31,74350.5,8.77,3.59,3.63,0,*7A
1500782585.7,62472,21.31,74352.0,8.75,3.53,3.63,0,*71
1500782586.93,62473,21.31,74352.3,8.77,3.59,3.67,0,*7C
1500782588.15,62474,21.31,74354.8,8.79,3.53,3.71,0,*78
1500782589.38,62475,21.31,74350.3,8.77,3.59,3.79,0,*75
1500782590.63,62476,21.31,74352.5,8.77,3.53,3.75,0,*70
1500782591.87,62477,21.31,74354.3,8.77,3.67,3.85,0,*79
1500782593.13,62478,21.31,74356.0,8.77,3.67,3.79,0,*75
1500782594.36,62479,21.31,74354.3,8.77,3.67,3.85,0,*77
1500782595.61,62480,21.31,74348.3,8.75,3.53,3.75,0,*7B
1500782596.83,62481,21.31,74352.3,8.75,3.59,3.75,0,*70
1500782598.06,62482,21.31,74350.5,8.77,3.49,3.63,0,*77
1500782599.26,62483,21.31,74350.5,8.77,3.63,3.85,0,*76
1500782600.49,62484,21.31,74354.0,8.77,3.79,3.85,0,*7A
1500782601.73,62485,21.31,74352.5,8.77,3.75,3.89,0,*7B
1500782602.97,62486,21.31,74352.0,8.77,3.75,3.89,0,*78
1500782604.21,62487,21.31,74352.0,8.77,3.79,3.89,0,*75
1500782605.45,62488,21.31,74352.0,8.77,3.75,3.89,0,*76
1500782606.71,62489,21.31,74350.5,8.77,3.67,3.79,0,*7B
1500782607.93,62490,21.31,74352.5,8.77,3.59,3.79,0,*7E
1500782609.16,62491,21.31,74352.3,8.77,3.59,3.79,0,*7F
1500782610.41,62492,21.31,74350.3,8.77,3.53,3.79,0,*76
1500782611.66,62493,21.31,74354.0,8.77,3.53,3.67,0,*78
1500782612.89,62494,21.31,74350.8,8.77,3.59,3.75,0,*76
1500782614.12,62495,21.31,74344.8,8.77,3.63,3.79,0,*72
1500782615.35,62496,21.31,74348.3,8.75,3.67,3.85,0,*74
1500782616.6,62497,21.31,74348.8,8.75,3.53,3.75,0,*7D
1500782617.84,62498,21.31,74346.8,8.77,3.67,3.89,0,*74
1500782619.07,62499,21.31,74348.5,8.75,3.75,3.89,0,*74
1500782620.3,62500,21.31,74344.3,8.77,3.63,3.67,0,*70
1500782621.53,62501,21.31,74348.3,8.75,3.59,3.75,0,*79
1500782622.78,62502,21.31,74352.0,8.77,3.67,3.79,0,*79
1500782624.04,62503,21.31,74352.5,8.77,3.79,3.97,0,*77
1500782625.28,62504,21.31,74348.3,8.77,3.79,3.89,0,*7F
1500782626.53,62505,21.31,74348.0,8.75,3.75,3.79,0,*7F
1500782627.77,62506,21.31,74348.8,8.77,3.79,3.89,0,*7D
1500782629.02,62507,21.31,74354.5,8.75,3.79,3.97,0,*71
1500782630.25,62508,21.31,74350.8,8.77,3.79,3.85,0,*7F
1500782631.48,62509,21.31,74352.0,8.75,3.63,3.75,0,*78
1500782632.73,62510,21.31,74350.3,8.75,3.67,3.79,0,*78
1500782633.96,62511,21.31,74354.3,8.77,3.89,3.97,0,*7B
1500782635.19,62512,21.31,74352.8,8.75,3.89,3.97,0,*7A
1500782636.4,62513,21.31,74354.0,8.77,3.85,3.89,0,*7A
1500782637.61,62514,21.31,74354.0,8.77,3.85,3.89,0,*7D
1500782638.82,62515,21.31,74350.8,8.77,3.85,3.89,0,*7C
1500782640.03,62516,21.31,74350.8,8.77,3.89,3.89,0,*73
1500782641.26,62517,21.31,74354.0,8.75,3.89,3.97,0,*7F
1500782642.45,62518,21.31,74354.0,8.75,3.85,3.85,0,*7F
1500782643.69,62519,21.31,74352.8,8.77,3.97,3.89,0,*73
1500782644.92,62520,21.31,74354.8,8.77,3.89,3.79,0,*79
1500782646.12,62521,21.31,74352.0,8.77,3.85,3.85,0,*77
1500782647.38,62522,21.31,74352.5,8.75,3.79,3.75,0,*7A
1500782648.64,62523,21.31,74352.8,8.77,3.79,3.75,0,*79
1500782649.9,62524,21.31,74352.8,8.75,3.75,3.75,0,*70
1500782651.16,62525,21.31,74354.3,8.77,3.75,3.67,0,*70
1500782652.39,62526,21.31,74354.0,8.77,3.85,3.75,0,*7F
1500782653.65,62527,21.31,74352.5,8.75,3.75,3.75,0,*73
1500782654.9,62528,21.31,74354.0,8.77,3.79,3.79,0,*7E
1500782656.14,62529,21.31,74350.3,8.77,3.85,3.75,0,*70
1500782657.37,62530,21.31,74348.8,8.77,3.85,3.75,0,*78
1500782658.63,62531,21.31,74352.0,8.77,3.75,3.67,0,*75
1500782659.88,62532,21.31,74350.0,8.75,3.79,3.79,0,*77
1500782661.14,62533,21.31,74352.0,8.75,3.75,3.67,0,*75
1500782662.4,62534,21.31,74352.8,8.77,3.75,3.67,0,*70
1500782663.65,62535,21.31,74352.5,8.77,3.79,3.67,0,*7D
1500782664.91,62536,21.31,74352.0,8.77,3.79,3.67,0,*7E
1500782666.14,62537,21.31,74352.3,8.77,3.85,3.75,0,*7F
1500782667.37,62538,21.31,74354.8,8.75,3.85,3.67,0,*71
1500782668.6,62539,21.31,74354.3,8.77,3.85,3.75,0,*71
1500782669.83,62540,21.31,74352.0,8.77,3.85,3.67,0,*7C
1500782671.06,62541,21.31,74352.5,8.77,3.79,3.63,0,*7A
1500782672.29,62542,21.31,74354.0,8.77,3.85,3.67,0,*7E
1500782673.52,62543,21.31,74352.0,8.75,3.85,3.75,0,*7E
1500782674.75,62544,21.31,74354.0,8.77,3.89,3.67,0,*74
1500782675.98,62545,21.31,74354.3,8.75,3.89,3.75,0,*74
1500782677.2,62546,21.31,74354.0,8.75,3.85,3.67,0,*78
1500782678.46,62547,21.31,74356.5,8.77,3.97,3.75,0,*7B
1500782679.71,62548,21.31,74352.3,8.75,3.97,3.75,0,*76
1500782680.97,62549,21.31,74352.8,8.77,4.01,3.75,0,*7D
1500782682.22,62550,21.31,74354.0,8.75,3.97,3.75,0,*7F
1500782683.44,62551,21.31,74352.5,8.77,3.97,3.85,0,*73
1500782684.69,62552,21.31,74354.8,8.77,4.01,3.79,0,*7B
1500782685.95,62553,21.31,74352.3,8.77,3.97,3.79,0,*72
1500782687.2,62554,21.31,74354.3,8.77,3.97,3.79,0,*75
1500782688.45,62555,21.31,74354.5,8.77,4.01,3.79,0,*7C
1500782689.71,62556,21.31,74354.5,8.77,3.97,3.75,0,*7B
1500782690.96,62557,21.31,74356.5,8.77,3.97,3.67,0,*79
1500782692.22,62558,21.31,74352.0,8.77,3.79,3.53,0,*71
1500782693.47,62559,21.31,74352.3,8.77,3.75,3.53,0,*7C
1500782694.68,62560,21.31,74354.3,8.77,3.89,3.59,0,*7F
1500782695.91,62561,21.31,74354.0,8.77,3.85,3.53,0,*78
1500782697.11,62562,21.31,74350.3,8.77,3.89,3.63,0,*74
1500782698.34,62563,21.31,74348.5,8.77,3.97,3.63,0,*7A
1500782699.57,62564,21.31,74354.0,8.79,4.01,3.79,0,*70
1500782700.8,62565,21.31,74350.5,8.79,4.05,3.71,0,*7D
1500782702.03,62566,21.31,74352.3,8.79,4.01,3.71,0,*7A
1500782703.28,62567,21.31,74350.5,8.77,3.97,3.67,0,*7A
1500782704.49,62568,21.31,74352.3,8.79,3.93,3.67,0,*7F
1500782705.71,62569,21.31,74354.0,8.77,3.97,3.63,0,*70
1500782706.94,62570,21.31,74354.0,8.77,3.97,3.63,0,*78
1500782708.17,62571,21.31,74354.8,8.79,4.01,3.67,0,*7B
1500782709.39,62572,21.31,74350.5,8.79,4.01,3.67,0,*78
1500782710.6,62573,21.31,74356.3,8.79,3.93,3.67,0,*75
1500782711.8,62574,21.31,74352.3,8.79,4.01,3.63,0,*7A
1500782713.05,62575,21.31,74352.5,8.81,4.01,3.67,0,*78
1500782714.28,62576,21.31,74352.5,8.79,4.05,3.67,0,*78
1500782715.51,62577,21.31,74352.5,8.79,4.01,3.71,0,*7A
1500782716.74,62578,21.31,74352.8,8.79,4.05,3.79,0,*79
1500782717.99,62579,21.31,74352.8,8.81,4.01,3.71,0,*73
1500782719.17,62580,21.31,74350.3,8.79,3.93,3.55,0,*78
1500782720.35,62581,21.31,74354.0,8.79,3.93,3.55,0,*79
1500782721.6,62582,21.31,74352.5,8.81,4.05,3.67,0,*74
1500782722.84,62583,21.31,74352.5,8.79,4.05,3.71,0,*75
1500782724.07,62584,21.31,74356.5,8.79,4.05,3.71,0,*72
1500782725.31,62585,21.31,74354.3,8.79,4.05,3.71,0,*73
1500782726.56,62586,21.31,74354.3,8.81,4.05,3.67,0,*70
1500782727.76,62587,21.31,74354.3,8.79,4.01,3.63,0,*76
1500782729.0,62588,21.31,74352.8,8.79,4.05,3.71,0,*7E
1500782730.25,62589,21.31,74354.5,8.81,4.05,3.67,0,*7F
1500782731.46,62590,21.31,74354.0,8.79,4.05,3.63,0,*74
1500782732.68,62591,21.31,74354.8,8.81,4.01,3.63,0,*76
1500782733.9,62592,21.31,74358.3,8.81,4.01,3.55,0,*70
1500782735.11,62593,21.31,74356.8,8.79,4.05,3.63,0,*77
1500782736.33,62594,21.31,74352.5,8.81,4.01,3.63,0,*73
1500782737.56,62595,21.31,74356.8,8.81,4.05,3.63,0,*76
1500782738.82,62596,21.31,74358.0,8.81,4.05,3.67,0,*71
1500782740.05,62597,21.31,74356.0,8.81,4.05,3.63,0,*74
1500782741.28,62598,21.31,74358.3,8.81,4.05,3.63,0,*7B
1500782742.49,62599,21.31,74354.8,8.79,3.93,3.45,0,*71
1500782743.67,62600,21.31,74354.0,8.79,3.93,3.55,0,*73
1500782744.87,62601,21.31,74352.5,8.79,4.05,3.55,0,*7A
1500782746.1,62602,21.31,74354.0,8.81,4.05,3.55,0,*7E
1500782747.35,62603,21.31,74352.8,8.81,4.01,3.53,0,*7D
1500782748.56,62604,21.31,74356.3,8.79,3.89,3.45,0,*7D
1500782749.77,62605,21.31,74354.3,8.79,3.93,3.45,0,*77
1500782751.0,62606,21.31,74352.5,8.81,3.89,3.45,0,*78
1500782752.21,62607,21.31,74352.8,8.79,3.93,3.45,0,*75
1500782753.44,62608,21.31,74352.5,8.81,4.01,3.63,0,*75
1500782754.64,62609,21.31,74350.8,8.79,3.93,3.53,0,*7C
1500782755.85,62610,21.31,74354.8,8.79,3.81,3.41,0,*74
1500782757.09,62611,21.31,74352.3,8.81,3.81,3.41,0,*72
1500782758.34,62612,21.31,74352.3,8.81,3.71,3.33,0,*7B
1500782759.58,62613,21.31,74354.8,8.79,3.79,3.33,0,*75
1500782760.79,62614,21.31,74352.3,8.79,3.81,3.33,0,*75
1500782762.04,62615,21.31,74350.5,8.81,3.79,3.33,0,*74
1500782763.25,62616,21.31,74352.3,8.79,3.81,3.41,0,*72
1500782764.48,62617,21.31,74352.5,8.81,3.81,3.33,0,*71
1500782765.69,62618,21.31,74354.3,8.79,3.81,3.33,0,*79
1500782766.9,62619,21.31,74352.0,8.79,3.89,3.45,0,*71
1500782768.14,62620,21.31,74354.3,8.79,3.71,3.41,0,*78
1500782769.35,62621,21.31,74354.0,8.79,3.81,3.45,0,*72
1500782770.56,62622,21.31,74354.0,8.79,3.81,3.45,0,*71
1500782771.77,62623,21.31,74354.3,8.79,3.89,3.45,0,*78
1500782772.98,62624,21.31,74352.5,8.79,3.89,3.45,0,*7F
1500782774.2,62625,21.31,74358.3,8.79,4.01,3.53,0,*7E
1500782775.41,62626,21.31,74352.5,8.79,3.81,3.45,0,*75
1500782776.62,62627,21.31,74354.5,8.79,3.89,3.41,0,*78
1500782777.83,62628,21.31,74356.5,8.79,3.89,3.45,0,*73
1500782779.04,62629,21.31,74356.3,8.79,3.93,3.45,0,*79
1500782780.26,62630,21.31,74356.0,8.79,3.93,3.41,0,*75
1500782781.47,62631,21.31,74352.5,8.79,3.89,3.41,0,*7F
1500782782.68,62632,21.31,74352.5,8.79,3.89,3.45,0,*78
1500782783.9,62633,21.31,74352.0,8.79,3.89,3.41,0,*7D
1500782785.11,62634,21.31,74354.8,8.79,3.89,3.45,0,*7E
1500782786.35,62635,21.31,74354.8,8.77,3.89,3.41,0,*75
1500782787.59,62636,21.31,74354.8,8.77,3.89,3.41,0,*76
1500782788.82,62637,21.31,74358.5,8.75,3.85,3.41,0,*79
1500782790.06,62638,21.31,74356.0,8.77,3.85,3.41,0,*74
1500782791.27,62639,21.31,74354.3,8.79,3.89,3.41,0,*77
1500782792.48,62640,21.31,74354.0,8.79,3.93,3.45,0,*76
1500782793.7,62641,21.31,74352.5,8.79,3.89,3.41,0,*78
1500782794.91,62642,21.31,74354.5,8.79,3.81,3.41,0,*73
1500782796.17,62643,21.31,74352.3,8.77,3.79,3.41,0,*7B
1500782797.43,62644,21.31,74354.3,8.77,3.79,3.37,0,*7D
1500782798.69,62645,21.31,74354.5,8.77,3.79,3.37,0,*7C
1500782799.92,62646,21.31,74354.8,8.77,3.85,3.37,0,*7C
1500782801.17,62647,21.31,74354.3,8.75,3.79,3.37,0,*7C
1500782802.43,62648,21.31,74352.3,8.77,3.79,3.37,0,*71
1500782803.67,62649,21.31,74354.5,8.77,3.85,3.41,0,*72
1500782804.9,62650,21.31,74354.0,8.77,3.85,3.41,0,*7A
1500782806.13,62651,21.31,74354.3,8.77,3.85,3.37,0,*7A
1500782807.36,62652,21.31,74348.8,8.77,3.85,3.37,0,*79
1500782808.62,62653,21.31,74354.0,8.77,3.75,3.37,0,*77
1500782809.86,62654,21.31,74348.5,8.77,3.89,3.37,0,*73
1500782811.09,62655,21.31,74354.5,8.75,3.89,3.41,0,*71
1500782812.33,62656,21.31,74352.3,8.77,3.89,3.37,0,*71
1500782813.56,62657,21.31,74352.3,8.77,3.85,3.37,0,*7C
1500782814.79,62658,21.31,74352.3,8.75,3.89,3.37,0,*7D
1500782816.03,62659,21.31,74350.5,8.77,3.89,3.41,0,*7F
1500782817.28,62660,21.31,74356.5,8.77,3.97,3.37,0,*7B
1500782818.54,62661,21.31,74350.5,8.77,3.97,3.41,0,*7B
1500782819.8,62662,21.31,74350.8,8.77,4.01,3.41,0,*70
1500782821.06,62663,21.31,74354.3,8.77,3.97,3.37,0,*78
1500782822.3,62664,21.31,74356.5,8.77,3.89,3.41,0,*71
1500782823.55,62665,21.31,74354.5,8.75,3.97,3.41,0,*7D
1500782824.79,62666,21.31,74352.8,8.75,3.89,3.41,0,*71
1500782826.02,62667,21.31,74350.8,8.77,3.85,3.37,0,*7F
1500782827.25,62668,21.31,74354.0,8.77,3.89,3.37,0,*7C
1500782828.51,62669,21.31,74352.5,8.77,3.97,3.41,0,*73
1500782829.75,62670,21.31,74352.3,8.77,3.89,3.37,0,*75
1500782830.98,62671,21.31,74352.5,8.77,3.85,3.41,0,*79
1500782832.24,62672,21.31,74352.3,8.77,4.01,3.41,0,*71
1500782833.5,62673,21.31,74354.8,8.75,4.01,3.41,0,*72
1500782834.76,62674,21.31,74350.8,8.77,4.01,3.41,0,*77
1500782835.99,62675,21.31,74352.3,8.77,3.89,3.37,0,*70
1500782837.25,62676,21.31,74352.0,8.77,3.97,3.41,0,*7D
1500782838.51,62677,21.31,74350.8,8.77,4.01,3.41,0,*74
1500782839.77,62678,21.31,74354.3,8.77,4.01,3.49,0,*73
1500782841.02,62679,21.31,74352.0,8.75,4.01,3.41,0,*78
1500782842.28,62680,21.31,74354.3,8.77,4.01,3.49,0,*74
1500782843.54,62681,21.31,74354.0,8.77,3.97,3.41,0,*75
1500782844.8,62682,21.31,74352.0,8.77,4.01,3.49,0,*76
1500782846.05,62683,21.31,74354.8,8.77,3.97,3.49,0,*7F
1500782847.31,62684,21.31,74352.0,8.77,3.97,3.37,0,*71
1500782848.57,62685,21.31,74354.8,8.77,4.01,3.41,0,*79
1500782849.81,62686,21.31,74354.8,8.75,3.97,3.37,0,*71
1500782851.05,62687,21.31,74354.3,8.75,4.07,3.41,0,*7F
1500782852.3,62688,21.31,74354.8,8.77,4.01,3.49,0,*7C
1500782853.53,62689,21.31,74352.3,8.77,4.07,3.53,0,*70
1500782854.77,62690,21.31,74354.0,8.77,4.07,3.49,0,*73
1500782856.0,62691,21.31,74350.8,8.77,4.07,3.53,0,*79
1500782857.24,62692,21.31,74350.8,8.77,4.07,3.49,0,*71
1500782858.47,62693,21.31,74354.5,8.77,4.07,3.37,0,*79
1500782859.71,62694,21.31,74352.5,8.77,3.89,3.37,0,*7F
1500782860.96,62695,21.31,74350.8,8.77,3.97,3.37,0,*71
1500782862.21,62696,21.31,74352.8,8.77,3.97,3.37,0,*72
1500782863.47,62697,21.31,74352.3,8.77,4.01,3.41,0,*7A
1500782864.73,62698,21.31,74350.3,8.77,4.01,3.41,0,*75
1500782865.98,62699,21.31,74350.5,8.75,3.97,3.37,0,*7F
1500782867.22,62700,21.31,74354.0,8.77,3.89,3.41,0,*72
1500782868.46,62701,21.31,74348.0,8.79,4.05,3.45,0,*7A
1500782869.7,62702,21.31,74352.3,8.79,4.05,3.45,0,*79
1500782870.93,62703,21.31,74350.8,8.79,4.05,3.53,0,*7F
1500782872.16,62704,21.31,74346.8,8.77,4.07,3.53,0,*74
1500782873.39,62705,21.31,74348.0,8.77,4.07,3.49,0,*7E
1500782874.62,62706,21.31,74350.5,8.79,4.05,3.53,0,*7A
1500782875.83,62707,21.31,74352.5,8.79,4.05,3.55,0,*7D
1500782877.07,62708,21.31,74354.3,8.79,4.05,3.45,0,*73
1500782878.27,62709,21.31,74350.0,8.79,4.05,3.55,0,*73
1500782879.47,62710,21.31,74354.0,8.79,4.11,3.53,0,*78
1500782880.68,62711,21.31,74352.8,8.79,4.11,3.53,0,*79
1500782881.88,62712,21.31,74352.3,8.79,4.11,3.53,0,*7A
1500782883.08,62713,21.31,74354.3,8.81,4.11,3.55,0,*7A
1500782884.29,62714,21.31,74354.0,8.79,4.11,3.53,0,*7C
1500782885.53,62715,21.31,74352.3,8.79,4.05,3.41,0,*7B
1500782886.76,62716,21.31,74352.3,8.79,4.01,3.41,0,*7C
1500782887.99,62717,21.31,74354.0,8.79,4.01,3.45,0,*79
1500782889.23,62718,21.31,74350.8,8.79,4.05,3.41,0,*76
1500782890.49,62719,21.31,74354.5,8.81,4.05,3.45,0,*74
1500782891.75,62720,21.31,74352.5,8.81,4.05,3.45,0,*7E
1500782892.99,62721,21.31,74352.5,8.81,3.93,3.41,0,*73
1500782894.22,62722,21.31,74348.8,8.81,3.89,3.33,0,*7E
1500782895.45,62723,21.31,74350.8,8.79,4.01,3.33,0,*7F
1500782896.69,62724,21.31,74350.8,8.79,4.05,3.41,0,*79
1500782897.92,62725,21.31,74348.3,8.79,4.01,3.41,0,*7C
1500782899.19,62726,21.31,74354.5,8.81,4.05,3.41,0,*7C
1500782900.39,62727,21.31,74352.0,8.79,3.89,3.19,0,*74
1500782901.61,62728,21.31,74348.3,8.81,3.81,3.23,0,*7D
1500782902.8,62729,21.31,74350.8,8.79,3.89,3.29,0,*79
1500782903.98,62730,21.31,74352.0,8.79,3.89,3.29,0,*71
1500782905.18,62731,21.31,74350.5,8.79,3.81,3.23,0,*72
1500782906.41,62732,21.31,74352.8,8.79,3.79,3.11,0,*77
1500782907.61,62733,21.31,74350.0,8.79,3.81,3.19,0,*79
1500782908.82,62734,21.31,74352.5,8.79,3.89,3.23,0,*7F
1500782910.05,62735,21.31,74350.5,8.79,3.79,3.11,0,*70
1500782911.23,62736,21.31,74352.5,8.79,3.63,2.91,0,*71
1500782912.4,62737,21.31,74352.3,8.79,3.63,2.91,0,*70
1500782913.64,62738,21.31,74350.0,8.79,3.67,3.07,0,*75
1500782914.84,62739,21.31,74352.3,8.79,3.71,2.99,0,*75
1500782916.07,62740,21.31,74350.8,8.79,3.79,3.11,0,*72
1500782917.3,62741,21.31,74350.8,8.81,3.79,2.99,0,*75
1500782918.51,62742,21.31,74352.3,8.79,3.67,2.91,0,*76
1500782919.72,62743,21.31,74350.0,8.79,3.67,2.91,0,*77
1500782920.92,62744,21.31,74350.8,8.79,3.55,2.73,0,*7D
1500782922.13,62745,21.31,74348.8,8.79,3.63,2.81,0,*74
1500782923.38,62746,21.31,74346.0,8.81,3.67,2.85,0,*70
1500782924.62,62747,21.31,74344.0,8.79,3.67,2.81,0,*72
1500782925.82,62748,21.31,74354.5,8.77,3.63,2.95,0,*72
1500782927.03,62749,21.31,74348.8,8.79,3.67,2.99,0,*75
1500782928.29,62750,21.31,74350.3,8.77,3.49,2.81,0,*76
1500782929.5,62751,21.31,74350.8,8.79,3.63,2.81,0,*71
1500782930.75,62752,21.31,74348.8,8.77,3.53,2.81,0,*7F
1500782932.01,62753,21.31,74348.0,8.77,3.67,2.85,0,*7D
1500782933.21,62754,21.31,74352.5,8.79,3.55,2.81,0,*71
1500782934.42,62755,21.31,74350.0,8.77,3.59,2.65,0,*78
1500782935.67,62756,21.31,74348.8,8.77,3.53,2.69,0,*7D
1500782936.92,62757,21.31,74350.8,8.77,3.49,2.59,0,*74